Weather History for St. Kitts, Saint Kitts and Nevis

Change the Weather History Date:

Sunday, February 24, 2013

  Actual Average Record
Temperature  
Mean Temperature 78 °F -  
Max Temperature 84 °F 81 °F 86 °F (1998)
Min Temperature 72 °F 73 °F 71 °F (2007)
Cooling Degree Days 13    
Growing Degree Days 28 (Base 50)    
Moisture  
Dew Point 68 °F    
Average Humidity 65    
Maximum Humidity 78    
Minimum Humidity 50    
Precipitation  
Precipitation 0.00 in - - ()
Sea Level Pressure  
Sea Level Pressure 30.00 in    
Wind  
Wind Speed 11 mph ()    
Max Wind Speed 15 mph    
Max Gust Speed -    
Visibility 8.8 miles    
Events      
Averages and records for this station are not official NWS values.
T = Trace of Precipitation, MM = Missing Value Source: Averaged Metar Reports

Daily Weather History Graph

Daily Weather History Graph

Search for Another Location

Airport:

Trip Planner

Search our weather history database for the weather conditions in past years. The results will help you decide how hot, cold, wet, or windy it might be!

Date:

Astronomy

Feb. 24, 2013 Rise Set
Actual Time 6:32 AM AST 6:15 PM AST
Civil Twilight 6:10 AM AST 6:37 PM AST
Nautical Twilight 5:44 AM AST 7:03 PM AST
Astronomical Twilight 5:19 AM AST 7:28 PM AST
Moon 5:22 PM AST (2/24) 5:22 AM AST (2/24)
Length of Visible Light 12h 27m
Length of Day
11h 43m
Waxing Gibbous, 98% of the Moon is Illuminated
Feb 24
Waxing Gibbous
Feb 25
Full
Mar 4
Last Quarter
Mar 11
New
Mar 19
First Quarter

Hourly Weather History & Observations

Time (AST) Temp. Heat Index Dew Point Humidity Pressure Visibility Wind Dir Wind Speed Gust Speed Precip Events Conditions
6:00 AM 75.2 °F - 68.0 °F 78% 29.98 in 6.2 mi ENE 15.0 mph - N/A   Partly Cloudy
7:00 AM 75.2 °F - 68.0 °F 78% 30.01 in 6.2 mi ENE 12.7 mph - N/A   Partly Cloudy
8:00 AM 79 °F - 68 °F 61% 30.04 in 19 mi ENE 15.0 mph - -   Partly Cloudy
8:00 AM 78.8 °F - 68.0 °F 69% 30.04 in 6.2 mi ENE 15.0 mph - N/A   Partly Cloudy
9:00 AM 84.2 °F 87.3 °F 68.0 °F 58% 30.04 in 6.2 mi East 11.5 mph - N/A   Partly Cloudy
10:00 AM 80.6 °F 83.2 °F 68.0 °F 65% 30.06 in 6.2 mi East 13.8 mph - N/A   Partly Cloudy
11:00 AM 83 °F - 67 °F 50% 30.06 in 19 mi East 10.4 mph - -   Scattered Clouds
11:00 AM 84.2 °F 87.3 °F 68.0 °F 58% 30.04 in 6.2 mi East 13.8 mph - N/A   Partly Cloudy
1:00 PM 82.4 °F 84.6 °F 66.2 °F 58% 30.01 in 6.2 mi ENE 13.8 mph - N/A   Mostly Cloudy
2:00 PM 83 °F - 68 °F 51% 29.98 in 19 mi ENE 13.8 mph - -   Scattered Clouds
2:00 PM 82.4 °F 85.4 °F 68.0 °F 62% 29.98 in 6.2 mi ENE 13.8 mph - N/A   Partly Cloudy
3:00 PM 82.4 °F 85.4 °F 68.0 °F 62% 29.95 in 6.2 mi ENE 11.5 mph - N/A   Partly Cloudy
4:00 PM 82.4 °F 85.4 °F 68.0 °F 62% 29.95 in 6.2 mi ENE 12.7 mph - N/A   Partly Cloudy
5:00 PM 80 °F - 67 °F 57% 29.96 in 22 mi ENE 11.5 mph - -   Scattered Clouds
5:00 PM 80.6 °F 83.2 °F 68.0 °F 65% 29.95 in 6.2 mi ENE 11.5 mph - N/A   Partly Cloudy
6:00 PM 78.8 °F - 68.0 °F 69% 29.95 in 6.2 mi ENE 9.2 mph - N/A   Partly Cloudy
7:00 PM 75.2 °F - 68.0 °F 78% 29.98 in 6.2 mi ENE 11.5 mph - N/A   Partly Cloudy
8:00 PM 76 °F - 67 °F 68% 29.99 in 18 mi NE 12.7 mph - -   Scattered Clouds
8:00 PM 75.2 °F - 68.0 °F 78% 29.98 in 6.2 mi NE 12.7 mph - N/A   Partly Cloudy
9:00 PM 77.0 °F - 69.8 °F 78% 30.01 in 6.2 mi ENE 12.7 mph - N/A   Unknown